Flag for U.S.A. Weather past 2 weeks in New York, New York, U.S.A.

Now
28 °F

Light snow. Mostly cloudy.


Feels Like: 28 °F
Forecast: 25 / 36 °F
Wind: No wind

Location: New York City - Central Park

Current Time: Mar 1, 2015 at 8:54:21 PM

Latest Report: Mar 1, 2015 at 8:02 PM


Visibility: 1 mi

Pressure: 30.31 "Hg

Humidity: 81%

Dew point: 23 °F

Location of New YorkLocation

Historic Weather in New York — Graph

°F

New York temperature yesterday

Maximum temperature yesterday: 29 °F (at 4:51 PM)
Minimum temperature yesterday: 14 °F (at 5:51 AM)
Average temperature yesterday: 22 °F

Past Weeks' High & Low Weather Summary

 TemperatureHumidityPressure
High43 °F (Feb 22, 2:51 PM)88% (Feb 21, 11:51 PM)30.81 "Hg (Feb 21, 11:51 PM)
Low2 °F (Feb 20, 5:51 AM)23% (Feb 16, 2:51 PM)29.44 "Hg (Feb 14, 11:51 PM)
Average22 °F49%30.13 "Hg
* Reported Feb 14 6:02 PM — Mar 1 6:51 PM, New York, Weather by CustomWeather, © 2015

Note: Actual official high and low records may vary slightly from our data, if they occured in-between our weather recording intervals... More about our weather records

Advertising

New York weather history for previous 24 hours

 ConditionsComfort  
Time TempWeatherWind HumidityBarometerVisibility
6:51 PM
Sun, Mar 1
28 °FLight snow. Overcast.No wind78%30.31 "Hg3 mi
5:51 PM27 °FLight snow. Ice fog.No wind85%30.33 "Hg1 mi
4:51 PM27 °FSnow. Low clouds.No wind81%30.37 "Hg1 mi
3:51 PM26 °FSnow. More clouds than sun.No wind81%30.40 "Hg1 mi
2:51 PM27 °FSnow. Overcast.No wind78%30.44 "Hg1 mi
1:51 PM26 °FHeavy snow. Ice fog.No wind81%30.50 "Hg0 mi
1:00 PM28 °FLight snow. Mostly cloudy.N/A64%30.55 "Hg2 mi
11:51 AM30 °FMostly cloudy.6 mph36%30.57 "Hg8 mi
10:51 AM30 °FMostly cloudy.7 mph30%30.59 "Hg10 mi
9:51 AM30 °FOvercast.3 mph34%30.60 "Hg10 mi
8:51 AM30 °FOvercast.7 mph31%30.63 "Hg10 mi
7:51 AM28 °FMostly cloudy.No wind35%30.64 "Hg10 mi
6:51 AM27 °FOvercast.No wind29%30.66 "Hg10 mi
5:51 AM26 °FMostly cloudy.3 mph31%30.68 "Hg10 mi
4:51 AM25 °FPassing clouds.5 mph42%30.67 "Hg10 mi
3:51 AM25 °FClear.No wind32%30.66 "Hg10 mi
2:51 AM25 °FClear.No wind32%30.68 "Hg10 mi
1:51 AM26 °FClear.3 mph31%30.71 "Hg10 mi
12:51 AM26 °FClear.5 mph31%30.71 "Hg10 mi
11:51 PM
Sat, Feb 28
27 °FClear.N/A31%30.72 "Hg10 mi
10:51 PM27 °FClear.3 mph31%30.74 "Hg10 mi
9:51 PM27 °FClear.6 mph32%30.74 "Hg10 mi
8:51 PM26 °FClear.8 mph37%30.74 "Hg10 mi
Weather by CustomWeather, © 2015

See weather overviewHow to use our weather pages